Kenosha, WI

6:28 AM CDT on May 27, 2017 (GMT -0500)
Kenosha Regional

Weather History for KENW - April, 2013

Change the Weather History Date:

Tuesday, April 23, 2013

  Actual Average Record
Temperature  
Mean Temperature 46 °F -  
Max Temperature 57 °F 53 °F 85 °F (1960)
Min Temperature 37 °F 37 °F 25 °F (1956)
Degree Days  
Heating Degree Days 19    
Moisture  
Dew Point 39 °F    
Average Humidity 82    
Maximum Humidity 93    
Minimum Humidity 54    
Precipitation  
Precipitation 0.39 in - - ()
Sea Level Pressure  
Sea Level Pressure 29.95 in    
Wind  
Wind Speed 8 mph (NW)    
Max Wind Speed 16 mph    
Max Gust Speed 20 mph    
Visibility 7 miles    
Events Rain    
Averages and records for this station are not official NWS values.
T = Trace of Precipitation, MM = Missing Value Source: NWS Daily Summary

Daily Weather History Graph

Daily Weather History Graph

Search for Another Location

Airport or City:

Trip Planner

Search our weather history database for the weather conditions in past years. The results will help you decide how hot, cold, wet, or windy it might be!

Date:

Astronomy

Apr. 23, 2013 Rise Set
Actual Time 5:57 AM CDT 7:43 PM CDT
Civil Twilight 5:27 AM CDT 8:13 PM CDT
Nautical Twilight 4:51 AM CDT 8:49 PM CDT
Astronomical Twilight 4:11 AM CDT 9:29 PM CDT
Moon 5:35 PM CDT (4/23) 4:28 AM CDT (4/23)
Length of Visible Light 14h 45m
Length of Day
13h 45m
Waxing Gibbous, 94% of the Moon is Illuminated
Apr 23
Waxing Gibbous
Apr 25
Full
May 2
Last Quarter
May 9
New
May 17
First Quarter

Hourly Weather History & Observations

Time (CDT) Temp. Windchill Dew Point Humidity Pressure Visibility Wind Dir Wind Speed Gust Speed Precip Events Conditions
12:53 AM 52.0 °F - 36.0 °F 54% 30.03 in 10.0 mi South 6.9 mph - N/A   Mostly Cloudy
1:53 AM 53.1 °F - 37.0 °F 55% 30.00 in 10.0 mi South 8.1 mph - N/A   Scattered Clouds
2:53 AM 52.0 °F - 39.0 °F 61% 29.99 in 10.0 mi South 8.1 mph - 0.00 in   Overcast
3:53 AM 51.1 °F - 43.0 °F 74% 29.98 in 10.0 mi SW 3.5 mph - 0.00 in   Overcast
5:53 AM 50.0 °F - 44.1 °F 80% 29.93 in 10.0 mi South 5.8 mph - 0.00 in   Overcast
6:53 AM 51.1 °F - 44.1 °F 77% 29.95 in 10.0 mi SW 6.9 mph - N/A   Mostly Cloudy
7:53 AM 53.1 °F - 46.0 °F 77% 29.94 in 10.0 mi SW 4.6 mph - N/A   Mostly Cloudy
8:53 AM 55.9 °F - 46.9 °F 72% 29.94 in 10.0 mi WSW 10.4 mph - N/A   Mostly Cloudy
9:53 AM 55.9 °F - 46.9 °F 72% 29.93 in 10.0 mi West 8.1 mph - N/A   Mostly Cloudy
10:53 AM 55.0 °F - 46.9 °F 74% 29.92 in 10.0 mi West 8.1 mph - N/A   Overcast
11:12 AM 55.4 °F - 48.2 °F 77% 29.93 in 6.0 mi West 9.2 mph - 0.01 in Rain Light Rain
11:53 AM 53.1 °F - 48.9 °F 86% 29.93 in 2.5 mi West 8.1 mph - 0.04 in Rain Light Rain
11:56 AM 51.8 °F - 48.2 °F 88% 29.92 in 3.0 mi WNW 8.1 mph - 0.00 in Rain Light Rain
12:04 PM 51.8 °F - 48.2 °F 88% 29.92 in 2.0 mi West 8.1 mph - 0.01 in Rain Light Rain
12:18 PM 50.0 °F - 46.4 °F 87% 29.92 in 2.0 mi NW 13.8 mph 19.6 mph 0.03 in Rain Rain
12:53 PM 46.0 °F 41.0 °F 42.1 °F 86% 29.94 in 4.0 mi NW 10.4 mph - 0.08 in Rain Light Rain
1:53 PM 42.1 °F 37.1 °F 37.9 °F 85% 29.94 in 4.0 mi NW 8.1 mph - 0.05 in Rain Light Rain
2:53 PM 42.1 °F 36.6 °F 37.9 °F 85% 29.94 in 5.0 mi NW 9.2 mph - 0.04 in Rain Light Rain
3:29 PM 42.8 °F 37.0 °F 37.4 °F 81% 29.92 in 10.0 mi NW 10.4 mph - 0.01 in Rain Light Rain
3:53 PM 41.0 °F 33.1 °F 36.0 °F 82% 29.94 in 8.0 mi NNW 15.0 mph - 0.02 in Rain Light Rain
4:53 PM 39.9 °F 31.4 °F 36.0 °F 86% 29.94 in 4.0 mi NNW 16.1 mph 19.6 mph 0.05 in Rain Light Rain
5:35 PM 39.2 °F 32.0 °F 35.6 °F 87% 29.92 in 5.0 mi NNW 11.5 mph - 0.01 in Rain Light Rain
5:44 PM 39.2 °F 31.6 °F 35.6 °F 87% 29.93 in 4.0 mi NNW 12.7 mph 19.6 mph 0.02 in Rain Light Rain
5:53 PM 39.0 °F 31.0 °F 35.1 °F 86% 29.95 in 6.0 mi NNW 13.8 mph 18.4 mph 0.02 in Rain Light Rain
6:53 PM 39.0 °F 32.8 °F 35.1 °F 86% 29.97 in 4.0 mi NNW 9.2 mph - 0.04 in Rain Light Rain
7:53 PM 37.9 °F 32.1 °F 34.0 °F 86% 29.97 in 6.0 mi NNW 8.1 mph - 0.04 in Rain Light Rain
8:07 PM 37.4 °F 31.4 °F 33.8 °F 87% 29.96 in 6.0 mi North 8.1 mph - 0.00 in Rain Light Rain
8:39 PM 37.4 °F 32.1 °F 35.6 °F 93% 29.95 in 9.0 mi North 6.9 mph - 0.01 in   Overcast
8:53 PM 39.0 °F 34.0 °F 35.1 °F 86% 29.96 in 8.0 mi North 6.9 mph - 0.01 in   Overcast
9:05 PM 39.2 °F 35.0 °F 35.6 °F 87% 29.95 in 6.0 mi North 5.8 mph - 0.00 in Rain Light Rain
9:23 PM 39.2 °F 33.6 °F 35.6 °F 87% 29.95 in 8.0 mi North 8.1 mph - 0.00 in Rain Light Rain
9:30 PM 39.2 °F 34.2 °F 35.6 °F 87% 29.94 in 9.0 mi North 6.9 mph - 0.00 in   Overcast
9:53 PM 39.0 °F 34.0 °F 35.1 °F 86% 29.96 in 10.0 mi North 6.9 mph - 0.00 in   Overcast
10:19 PM 39.2 °F 32.5 °F 35.6 °F 87% 29.94 in 10.0 mi North 10.4 mph - N/A   Overcast
10:53 PM 39.0 °F 35.7 °F 36.0 °F 89% 29.96 in 7.0 mi NNE 4.6 mph - N/A   Overcast
11:04 PM 39.2 °F 35.9 °F 35.6 °F 87% 29.94 in 8.0 mi North 4.6 mph - N/A   Overcast
11:53 PM 39.0 °F 35.7 °F 35.1 °F 86% 29.95 in 10.0 mi North 4.6 mph - N/A   Overcast